Regional Weather Roundup
Issued by NWS

Home | Current Version | Previous Version | Graphics & Text | Print | Product List | Glossary On
Versions: 1 2 3 4 5 6 7 8 9 10 11 12 13 14 15 16 17 18 19 20 21 22 23 24 25 26 27 28 29 30 31 32 33 34 35 36 37 38 39 40 41 42 43 44 45 46 47 48 49 50
000
ASUS43 KTOP 281808
RWRKS

WEATHER ROUNDUP FOR KANSAS
NATIONAL WEATHER SERVICE GOODLAND KS
100 PM CDT THU JUL 28 2016

NOTE:  "FAIR" INDICATES FEW OR NO CLOUDS BELOW 12,000 FEET WITH NO
SIGNIFICANT WEATHER AND/OR OBSTRUCTIONS TO VISIBILITY.

KSZ001>006-013>018-027>032-041>047-281900-
NORTHWEST KANSAS

CITY           SKY/WX    TMP DP  RH WIND       PRES   REMARKS
GOODLAND       SUNNY     74  64  71 E12       30.11F
6HR MIN TEMP:  64; 6HR MAX TEMP:  77; 6HR PCP:  0.09;

HAYS           SUNNY     86  64  48 E9        30.05R
HILL CITY      PTSUNNY   84  65  52 CALM      30.08R
6HR MIN TEMP:  68; 6HR MAX TEMP:  85;

RUSSELL        SUNNY     88  68  51 E9        30.02R
6HR MIN TEMP:  69; 6HR MAX TEMP:  88;

$$

KSZ061>065-074>080-084>089-281900-
SOUTHWEST KANSAS

CITY           SKY/WX    TMP DP  RH WIND       PRES   REMARKS
DODGE CITY     SUNNY     86  61  42 SE14      30.06R
6HR MIN TEMP:  64; 6HR MAX TEMP:  87;

ELKHART          N/A     87  64  46 MISG        N/A
GARDEN CITY    SUNNY     85  66  53 SE8       30.06R
6HR MIN TEMP:  67; 6HR MAX TEMP:  85;

GREAT BEND     SUNNY     86  66  51 E12       30.02S
LIBERAL        SUNNY     88  61  40 S10       30.07S
PRATT          SUNNY     85  61  44 N7        30.03S
6HR MIN TEMP:  67; 6HR MAX TEMP:  85;

$$

KSZ066>073-081>083-090>101-281900-
SOUTHEAST KANSAS

CITY           SKY/WX    TMP DP  RH WIND       PRES   REMARKS
CHANUTE        SUNNY     87  72  60 W7        29.96F
6HR MIN TEMP:  71; 6HR MAX TEMP:  87; 6HR PCP:  1.44;

COFFEYVILLE    MOSUNNY   90  70  51 CALM      29.95F HX  95
6HR MIN TEMP:  74; 6HR MAX TEMP:  90;

HUTCHINSON     SUNNY     91  71  51 E12G18    30.00S HX  97
6HR MIN TEMP:  75; 6HR MAX TEMP:  91;

MEDICINE LODGE   N/A     92  60  34 NE12      29.98F
NEWTON         SUNNY     86  73  65 E7        30.01F
PARSONS        SUNNY     89  74  60 N10       29.96F HX  98
6HR MIN TEMP:  73; 6HR MAX TEMP:  89; 6HR PCP: TRACE;

WICHITA INTL   MOSUNNY   91  71  51 VRB5      29.97F HX  97
6HR MIN TEMP:  75; 6HR MAX TEMP:  94;

WICHITA JABRA  MOSUNNY   91  75  59 NE12      29.98F HX 101
6HR MIN TEMP:  76; 6HR MAX TEMP:  93;

WINFIELD       PTSUNNY   91  71  51 SE5       29.97F HX  97
6HR MIN TEMP:  72; 6HR MAX TEMP:  93;

$$

KSZ007>012-019>026-033>040-048>060-102>105-281900-
NORTHEAST KANSAS

CITY           SKY/WX    TMP DP  RH WIND       PRES   REMARKS
CONCORDIA      SUNNY     87  65  47 N8        30.01F
6HR MIN TEMP:  69; 6HR MAX TEMP:  88;

EMPORIA        SUNNY     88  67  49 NE10      29.99S
6HR MIN TEMP:  73; 6HR MAX TEMP:  88; 6HR PCP:  0.03;

LAWRENCE       SUNNY     88  69  53 NW5       29.97S
6HR MIN TEMP:  70; 6HR MAX TEMP:  89;

MANHATTAN      MOSUNNY   88  66  48 N8        29.99R
6HR MIN TEMP:  72; 6HR MAX TEMP:  89;

MARYSVILLE     SUNNY     88  66  48 N10G16    30.00S
OLATHE IND     SUNNY     88  68  51 N9        29.97F
6HR MIN TEMP:  73; 6HR MAX TEMP:  88;

OLATHE EXE     SUNNY     88  63  43 N10G17    29.97F
6HR MIN TEMP:  73; 6HR MAX TEMP:  88;

SALINA         SUNNY     92  67  43 N10       30.00R HX  95
6HR MIN TEMP:  75; 6HR MAX TEMP:  92;

TOPEKA BILLARD SUNNY     89  67  47 MISG      29.97S
6HR MIN TEMP:  72; 6HR MAX TEMP:  89;

TOPEKA FORBES  SUNNY     90  68  48 NE10      29.98S
6HR MIN TEMP:  73; 6HR MAX TEMP:  90;

$$




USA.gov is the U.S. government's official web portal to all federal, state and local government web resources and services.